Waarnemingen

Advertentie
Mijn weer
Lahr, Duitsland (10805): temperatuur & dauwpunt: 22.05.2017 06:00:00 - 28.05.2017 06:00:00 (CEST)Lahr, Duitsland (10805): temperatuur 5cm & temperatuur -5cm: 22.05.2017 06:00:00 - 28.05.2017 06:00:00 (CEST)Lahr, Duitsland (10805): temperatuur -20cm & temperatuur -100cm: 22.05.2017 06:00:00 - 28.05.2017 06:00:00 (CEST)Lahr, Duitsland (10805): windsnelheid & windstoten: 22.05.2017 06:00:00 - 28.05.2017 06:00:00 (CEST)Lahr, Duitsland (10805): windrichting: 22.05.2017 06:00:00 - 28.05.2017 06:00:00 (CEST)Lahr, Duitsland (10805): luchtdruk: 22.05.2017 06:00:00 - 28.05.2017 06:00:00 (CEST)Lahr, Duitsland (10805): zicht: 22.05.2017 06:00:00 - 28.05.2017 06:00:00 (CEST)Lahr, Duitsland (10805): Zonneschijnduur: 22.05.2017 06:00:00 - 28.05.2017 06:00:00 (CEST)Lahr, Duitsland (10805): neerslag: 22.05.2017 06:00:00 - 28.05.2017 06:00:00 (CEST)
Datum & Tijd tt [°C] td [°C] tt 5cm [°C] tt -5cm [°C] tt -20cm [°C] tt -100cm [°C] ff [km/u] ff [kn] fx [km/u] fx [kn] dd ppp [hPa] vv [km] sd [min] rr [mm]
28.05.2017 06:00:00 15,0 13,4 12,9 17,7 21,0 15,2 3 2 5 3 WNW 1019,0 32 0 0,0
28.05.2017 05:00:00 14,9 13,2 12,9 18,2 21,4 15,2 5 3 9 5 NW 1018,7 31 0 0,0
28.05.2017 04:00:00 16,9 13,1 13,9 18,9 21,8 15,1 6 3 7 4 W 1018,6 14 0 0,0
28.05.2017 03:00:00 17,2 13,6 14,2 19,5 22,2 15,1 2 1 12 7 OZO 1018,7 24 0 0,0
28.05.2017 02:00:00 18,6 13,6 16,9 20,3 22,6 15,1 7 4 20 11 Z 1018,4 45 0 0,0
28.05.2017 01:00:00 21,5 12,9 19,0 21,1 23,0 15,1 9 5 23 12 Z 1018,1 70 0 0,0
28.05.2017 00:00:00 19,8 14,8 16,6 22,0 23,4 15,1 6 3 7 4 WNW 1018,0 23 0 0,0
27.05.2017 23:00:00 20,4 15,2 16,7 23,2 23,8 15,1 1 1 6 4 O 1017,9 52 0 0,0
27.05.2017 22:00:00 22,0 15,1 18,2 24,7 24,1 15,1 5 3 9 5 ONO 1017,5 60 0 0,0
27.05.2017 21:00:00 25,1 14,8 21,2 26,7 24,2 15,1 6 4 9 5 N 1016,7 70 25 0,0
27.05.2017 20:00:00 28,4 14,2 27,9 29,0 24,1 15,1 7 4 9 5 N 1016,1 70 60 0,0
27.05.2017 19:00:00 31,0 9,6 31,3 31,2 23,8 15,1 2 1 10 6 O 1015,5 70 60 0,0
27.05.2017 18:00:00 31,9 8,9 33,9 32,8 23,3 15,0 1 1 9 5 W 1015,8 70 60 0,0
27.05.2017 17:00:00 30,7 8,8 34,4 33,9 22,7 15,0 3 2 8 5 NNW 1016,1 70 60 0,0
27.05.2017 16:00:00 29,8 10,9 36,3 34,2 21,9 15,0 6 3 16 9 W 1016,6 66 60 0,0
27.05.2017 15:00:00 29,2 12,7 36,9 33,9 21,1 15,0 5 3 15 8 W 1016,7 48 60 0,0
27.05.2017 14:00:00 28,7 12,1 35,0 32,8 20,2 15,0 4 2 12 7 N 1017,3 42 60 0,0
27.05.2017 13:00:00 26,8 11,7 33,0 30,9 19,4 15,0 7 4 10 6 NW 1017,9 57 60 0,0
27.05.2017 12:00:00 26,0 13,2 32,8 28,4 18,8 15,0 5 3 12 6 W 1018,3 52 60 0,0
27.05.2017 11:00:00 24,2 12,3 30,5 25,5 18,4 15,0 7 4 14 7 WZW 1018,6 49 60 0,0
27.05.2017 10:00:00 22,3 13,0 27,9 22,5 18,2 14,9 8 4 14 7 WZW 1019,1 56 60 0,0
27.05.2017 09:00:00 21,0 11,9 24,5 19,5 18,2 14,9 8 5 12 6 ZW 1019,1 38 60 0,0
27.05.2017 08:00:00 18,6 12,0 20,0 16,7 18,4 14,9 4 2 7 4 WZW 1019,0 53 60 0,0
27.05.2017 07:00:00 15,6 11,2 15,9 15,0 18,7 14,9 3 2 9 5 Z 1019,2 47 47 0,0
27.05.2017 06:00:00 13,8 10,2 9,8 14,9 19,0 14,9 4 2 13 7 NW 1018,5 63 0 0,0
27.05.2017 05:00:00 15,2 10,7 11,6 15,5 19,4 14,9 8 4 11 6 OZO 1018,2 64 0 0,0
27.05.2017 04:00:00 15,3 11,1 11,7 16,2 19,7 14,9 4 2 14 8 NO 1017,8 70 0 0,0
27.05.2017 03:00:00 20,1 9,9 17,7 16,9 20,1 14,9 11 6 22 12 ZO 1017,5 70 0 0,0
27.05.2017 02:00:00 19,1 10,2 14,4 17,6 20,4 14,9 5 3 17 9 OZO 1017,5 70 0 0,0
27.05.2017 01:00:00 20,8 10,3 17,4 18,3 20,8 14,9 8 4 19 11 OZO 1017,8 70 0 0,0
27.05.2017 00:00:00 18,6 11,9 15,8 19,1 21,1 14,8 8 5 17 9 WNW 1017,8 70 0 0,0
26.05.2017 23:00:00 21,3 11,2 18,9 20,1 21,5 14,8 13 7 22 12 NNO 1017,1 70 0 0,0
26.05.2017 22:00:00 22,9 10,7 18,5 21,3 21,7 14,8 10 6 26 14 NO 1016,3 70 0 0,0
26.05.2017 21:00:00 25,3 10,0 22,7 22,8 21,8 14,8 13 7 20 11 ONO 1015,9 70 47 0,0
26.05.2017 20:00:00 24,5 14,5 23,8 24,4 21,8 14,8 16 9 29 16 N 1015,7 10 60 0,0
26.05.2017 19:00:00 26,1 13,5 26,3 26,1 21,7 14,8 20 11 34 18 NNO 1015,4 35 60 0,0
26.05.2017 18:00:00 26,5 13,5 27,9 27,4 21,4 14,8 25 13 34 18 N 1015,7 37 60 0,0
26.05.2017 17:00:00 26,6 13,4 29,8 28,4 21,0 14,8 25 13 38 21 N 1016,0 26 60 0,0
26.05.2017 16:00:00 26,4 12,3 30,2 29,2 20,4 14,8 22 12 33 18 NNW 1016,4 32 60 0,0
26.05.2017 15:00:00 26,4 15,1 30,7 29,1 19,8 14,7 20 11 29 16 N 1017,1 33 60 0,0
26.05.2017 14:00:00 25,0 13,4 29,8 28,3 19,2 14,7 18 10 32 17 N 1017,9 35 60 0,0
26.05.2017 13:00:00 23,7 13,9 28,3 27,3 18,5 14,7 19 11 27 15 NNO 1018,7 41 60 0,0
26.05.2017 12:00:00 22,6 14,7 27,5 25,8 18,0 14,7 17 9 25 13 N 1019,3 29 60 0,0
26.05.2017 11:00:00 21,0 12,8 26,5 23,8 17,6 14,7 10 5 18 10 NNO 1019,8 35 60 0,0
26.05.2017 10:00:00 18,7 12,4 23,5 20,9 17,4 14,7 7 4 14 8 N 1020,3 34 60 0,0
26.05.2017 09:00:00 16,4 11,8 19,9 18,0 17,4 14,7 7 4 12 6 N 1020,5 31 60 0,0
26.05.2017 08:00:00 14,6 10,8 16,1 15,5 17,6 14,6 5 3 9 5 NNO 1020,5 19 60 0,0
26.05.2017 07:00:00 12,7 10,1 12,9 13,9 18,0 14,6 3 2 6 3 NNW 1020,2 18 45 0,0
26.05.2017 06:00:00 10,9 10,3 8,6 13,7 18,3 14,6 5 3 9 5 NNO 1020,2 16 0 0,0
26.05.2017 05:00:00 11,4 10,5 9,5 14,3 18,7 14,6 8 5 10 6 NNO 1020,2 18 0 0,0
26.05.2017 04:00:00 12,6 10,9 8,9 14,9 19,0 14,6 4 2 6 4 NO 1020,2 25 0 0,0
26.05.2017 03:00:00 13,3 11,0 10,8 15,5 19,4 14,6 5 3 9 5 NO 1020,3 30 0 0,0
26.05.2017 02:00:00 14,6 10,1 10,5 16,2 19,8 14,6 4 2 9 5 WZW 1020,2 50 0 0,0
26.05.2017 01:00:00 16,2 11,0 11,6 16,9 20,2 14,6 7 4 15 8 NO 1020,3 62 0 0,0
26.05.2017 00:00:00 16,9 10,7 14,7 17,8 20,6 14,6 8 4 18 10 OZO 1020,4 53 0 0,0
25.05.2017 23:00:00 16,8 11,3 13,2 18,7 20,9 14,5 9 5 14 8 NO 1020,5 59 0 0,0
25.05.2017 22:00:00 16,8 11,8 14,3 19,9 21,2 14,5 10 5 19 11 NO 1020,3 38 0 0,0
25.05.2017 21:00:00 20,2 11,7 18,5 21,3 21,4 14,5 14 8 30 16 NNO 1019,6 58 44 0,0
25.05.2017 20:00:00 21,3 12,0 20,7 23,0 21,5 14,5 20 11 32 18 NNO 1019,4 45 60 0,0
25.05.2017 19:00:00 22,3 12,0 22,6 24,9 21,4 14,5 25 14 36 19 NNO 1019,5 33 60 0,0
25.05.2017 18:00:00 23,0 11,4 24,7 26,6 21,2 14,5 20 11 32 17 N 1019,8 32 60 0,0
25.05.2017 17:00:00 23,3 12,1 25,8 27,8 20,8 14,5 18 10 30 16 N 1019,9 33 60 0,0
25.05.2017 16:00:00 22,8 11,7 26,9 28,1 20,3 14,5 18 10 28 15 N 1020,3 34 58 0,0
25.05.2017 15:00:00 22,9 13,4 27,1 27,8 19,9 14,4 18 10 35 19 N 1020,7 31 50 0,0
25.05.2017 14:00:00 21,7 12,8 26,0 27,6 19,4 14,4 17 9 26 14 N 1021,2 28 59 0,0
25.05.2017 13:00:00 21,3 12,7 25,9 25,7 19,0 14,4 16 9 29 15 N 1021,6 10 36 0,0
25.05.2017 12:00:00 20,8 13,6 25,4 25,0 18,6 14,4 15 8 20 11 NNW 1021,9 22 35 0,0
25.05.2017 11:00:00 20,2 13,9 24,5 24,1 18,2 14,4 9 5 17 9 N 1022,0 16 60 0,0
25.05.2017 10:00:00 19,3 14,0 23,3 21,5 18,1 14,4 10 6 16 9 N 1022,1 16 57 0,0
25.05.2017 09:00:00 17,9 13,1 20,5 19,2 18,1 14,4 8 4 12 6 N 1022,1 10 60 0,0
25.05.2017 08:00:00 16,3 13,0 19,1 17,0 18,3 14,3 4 2 6 3 W 1022,0 24 60 0,0
25.05.2017 07:00:00 14,0 12,5 14,0 15,7 18,6 14,3 3 1 8 4 NO 1022,1 13 7 0,0
25.05.2017 06:00:00 13,6 12,7 11,0 15,9 18,9 14,3 4 2 5 3 N 1022,0 21 0 0,0
25.05.2017 05:00:00 14,3 13,2 12,9 16,8 19,2 14,3 5 3 6 3 NO 1022,0 25 0 0,0
25.05.2017 04:00:00 15,5 13,5 13,3 17,4 19,5 14,3 3 1 5 3 ZZW 1021,9 36 0 0,0
25.05.2017 03:00:00 16,3 13,3 13,7 18,0 19,8 14,3 4 2 6 3 ZW 1022,2 42 0 0,0
25.05.2017 02:00:00 16,6 13,9 14,7 18,5 20,0 14,3 3 2 8 4 W 1022,4 44 0 0,0
25.05.2017 01:00:00 18,2 13,4 16,1 19,4 20,3 14,3 3 2 5 3 NO 1022,6 49 0 0,0
25.05.2017 00:00:00 18,9 13,1 17,5 20,0 20,6 14,3 4 2 15 8 NNO 1022,7 70 0 0,0
24.05.2017 23:00:00 19,6 13,0 18,8 20,6 20,8 14,2 12 7 21 11 NO 1022,8 68 0 0,0
24.05.2017 22:00:00 20,2 12,6 18,6 21,5 21,0 14,2 5 3 6 4 NNW 1022,5 70 0 0,0
24.05.2017 21:00:00 20,6 12,7 19,5 22,4 21,1 14,2 4 2 13 7 N 1022,0 70 5 0,0
24.05.2017 20:00:00 21,6 12,4 21,1 23,8 21,2 14,2 9 5 15 8 NNO 1022,0 70 44 0,0
24.05.2017 19:00:00 22,4 11,7 22,6 25,1 21,1 14,2 10 5 21 12 NO 1021,9 70 57 0,0
24.05.2017 18:00:00 22,5 11,7 24,1 26,6 20,8 14,2 16 8 25 13 N 1022,2 70 56 0,0
24.05.2017 17:00:00 22,9 11,0 25,6 28,0 20,4 14,2 14 8 24 13 NNO 1022,5 46 60 0,0
24.05.2017 16:00:00 22,1 11,2 25,3 28,7 19,8 14,2 11 6 22 12 N 1023,0 31 60 0,0
24.05.2017 15:00:00 21,6 10,5 27,8 28,7 19,2 14,2 13 7 24 13 N 1023,3 34 60 0,0
24.05.2017 14:00:00 20,6 8,2 25,6 28,1 18,6 14,1 12 6 25 13 NNO 1024,0 36 60 0,0
24.05.2017 13:00:00 20,6 10,3 26,3 26,6 18,1 14,1 10 5 24 13 N 1024,6 33 60 0,0
24.05.2017 12:00:00 19,6 9,3 25,6 25,0 17,6 14,1 12 6 23 12 NNW 1024,8 36 58 0,0
24.05.2017 11:00:00 18,9 8,2 23,3 23,1 17,2 14,1 10 5 16 9 NNO 1025,0 39 60 0,0
24.05.2017 10:00:00 18,5 9,6 23,1 20,1 17,1 14,1 7 4 14 8 N 1024,9 49 56 0,0
24.05.2017 09:00:00 17,3 9,1 20,1 18,0 17,1 14,1 5 3 9 5 NNW 1025,1 10 60 0,0
24.05.2017 08:00:00 15,9 9,4 17,7 15,7 17,3 14,1 5 3 7 4 NNW 1024,9 10 60 0,0
24.05.2017 07:00:00 14,2 10,9 12,9 14,5 17,6 14,1 2 1 7 4 WNW 1024,6 60 7 0,0
24.05.2017 06:00:00 13,5 9,7 9,8 14,5 17,9 14,1 6 3 14 8 N 1024,0 66 0 0,0
24.05.2017 05:00:00 13,6 10,0 12,0 15,2 18,2 14,0 12 7 20 11 N 1023,8 70 0 0,0
24.05.2017 04:00:00 15,4 11,9 14,0 15,8 18,5 14,0 16 9 19 10 NNW 1023,4 32 0 0,0
24.05.2017 03:00:00 16,4 12,2 14,1 16,5 18,8 14,0 8 4 13 7 NW 1022,6 42 0 0,0
24.05.2017 02:00:00 17,4 12,7 14,0 17,1 19,1 14,0 3 1 11 6 NNW 1022,3 60 0 0,0
24.05.2017 01:00:00 17,6 12,3 13,9 17,5 19,4 14,0 5 3 8 4 W 1022,2 66 0 0,0
24.05.2017 00:00:00 18,9 11,9 15,5 18,1 19,8 14,0 7 4 10 5 ZW 1021,9 70 0 0,0
23.05.2017 23:00:00 19,8 12,6 14,9 19,1 20,0 14,0 5 3 18 10 W 1021,4 30 0 0,0
23.05.2017 22:00:00 20,7 13,1 17,9 20,3 20,2 14,0 8 5 19 10 NNW 1020,5 28 0 0,0
23.05.2017 21:00:00 22,5 13,1 20,7 21,9 20,3 14,0 11 6 22 12 NW 1019,4 70 41 0,0
23.05.2017 20:00:00 24,3 13,3 23,5 23,4 20,3 14,0 13 7 24 13 NW 1018,9 70 41 0,0
23.05.2017 19:00:00 25,0 12,6 25,4 24,9 20,1 14,0 11 6 21 12 NW 1018,4 70 54 0,0
23.05.2017 18:00:00 25,3 12,5 26,6 24,9 20,0 13,9 14 8 27 14 NW 1018,5 60 22 0,0
23.05.2017 17:00:00 25,7 12,8 27,9 25,5 19,8 13,9 14 7 23 13 NW 1018,3 70 17 0,0
23.05.2017 16:00:00 24,9 13,7 25,8 25,8 19,4 13,9 13 7 20 11 NNW 1018,3 70 3 0,0
23.05.2017 15:00:00 24,9 11,8 26,5 28,6 18,7 13,9 10 6 21 12 NW 1018,1 70 46 0,0
23.05.2017 14:00:00 25,6 12,9 29,9 27,9 18,1 13,9 11 6 23 12 WZW 1018,1 10 55 0,0
23.05.2017 13:00:00 24,8 13,5 30,0 26,9 17,5 13,9 13 7 25 13 ZW 1018,5 45 60 0,0
23.05.2017 12:00:00 23,9 13,7 28,5 24,8 17,0 13,9 6 3 20 11 W 1018,8 70 60 0,0
23.05.2017 11:00:00 22,4 13,0 25,8 22,6 16,7 13,9 11 6 21 12 ZW 1018,8 49 60 0,0
23.05.2017 10:00:00 20,8 11,7 23,5 19,9 16,6 13,9 16 9 23 12 ZZW 1018,9 39 58 0,0
23.05.2017 09:00:00 17,9 12,4 19,6 16,9 16,6 13,9 8 4 16 9 ZW 1019,0 10 14 0,0
23.05.2017 08:00:00 15,2 12,2 15,7 15,4 16,8 13,9 8 4 11 6 ZZW 1018,6 34 0 0,0
23.05.2017 07:00:00 13,9 11,5 13,7 14,5 17,0 13,9 6 3 12 7 ZZW 1018,1 34 0 0,0
23.05.2017 06:00:00 14,3 10,9 12,9 14,2 17,3 13,9 7 4 10 5 Z 1017,5 41 0 0,0
23.05.2017 05:00:00 12,9 10,3 11,0 14,4 17,7 13,9 5 3 9 5 ZW 1017,6 40 0 0,0
23.05.2017 04:00:00 13,5 10,7 11,0 15,0 18,0 13,9 5 3 10 5 ZW 1017,4 43 0 0,0
23.05.2017 03:00:00 14,9 11,0 12,0 15,6 18,4 13,9 8 4 14 7 Z 1017,3 46 0 0,0
23.05.2017 02:00:00 15,1 11,9 13,7 16,3 18,7 13,8 9 5 14 8 Z 1017,2 41 0 0,0
23.05.2017 01:00:00 14,9 12,1 13,4 16,9 19,1 13,8 7 4 16 9 W 1017,0 37 0 0,0
23.05.2017 00:00:00 15,3 12,4 13,0 17,7 19,4 13,8 3 1 6 3 WNW 1016,8 41 0 0,0
22.05.2017 23:00:00 16,7 13,1 13,3 18,8 19,8 13,8 3 2 5 3 NO 1016,6 48 0 0,0
22.05.2017 22:00:00 17,1 12,6 14,1 20,1 20,0 13,8 5 3 11 6 NO 1016,1 59 0 0,0
22.05.2017 21:00:00 20,3 13,1 16,9 22,0 20,1 13,8 6 3 8 4 N 1015,6 70 6 0,0
22.05.2017 20:00:00 22,6 10,8 21,1 24,1 20,0 13,9 6 3 16 9 N 1015,4 70 60 0,0
22.05.2017 19:00:00 24,4 9,0 25,2 25,9 19,8 13,9 8 4 12 7 NNW 1015,4 10 60 0,0
22.05.2017 18:00:00 24,3 8,3 26,2 27,5 19,3 13,9 5 3 13 7 O 1015,7 68 60 0,0
22.05.2017 17:00:00 23,7 7,8 28,0 28,5 18,8 13,9 10 5 17 9 NNW 1016,1 65 60 0,0
22.05.2017 16:00:00 23,8 10,0 29,3 29,3 18,0 13,8 5 3 18 10 - 1016,5 10 60 0,0
22.05.2017 15:00:00 23,4 9,3 29,8 29,3 17,2 13,8 5 3 16 9 W 1017,0 46 60 0,0
22.05.2017 14:00:00 22,2 9,6 28,5 28,4 16,4 13,8 7 4 11 6 W 1017,5 64 60 0,0
22.05.2017 13:00:00 21,5 9,8 26,9 26,7 15,6 13,8 5 3 13 7 ONO 1017,9 43 60 0,0
22.05.2017 12:00:00 20,1 10,8 24,9 24,7 15,0 13,9 5 3 10 5 ONO 1018,6 32 60 0,0
22.05.2017 11:00:00 18,4 10,8 24,0 21,8 14,5 13,8 4 2 8 4 N 1019,0 43 60 0,0
22.05.2017 10:00:00 16,9 10,7 20,6 18,5 14,2 13,9 4 2 9 5 NO 1019,2 34 60 0,0
22.05.2017 09:00:00 14,8 10,4 17,5 15,6 14,2 13,9 3 2 7 4 NNO 1019,5 28 60 0,0
22.05.2017 08:00:00 12,6 8,9 15,2 12,6 14,3 13,9 3 2 5 3 W 1019,7 39 60 0,0
22.05.2017 07:00:00 10,8 8,7 9,7 10,8 14,6 13,9 2 1 9 5 ONO 1019,8 28 40 0,0
22.05.2017 06:00:00 8,3 8,2 5,9 10,6 14,9 13,9 3 2 5 3 NNO 1019,9 12 0 0,0

tt = temperatuur
td = dauwpunt
tt 5cm = temperatuur 5cm
tt -5cm = temperatuur -5cm
tt -20cm = temperatuur -20cm
tt -100cm = temperatuur -100cm
ff = windsnelheid
fx = windstoten
dd = windrichting
ppp = luchtdruk
vv = zicht
sd = Zonneschijnduur
rr = neerslag

Weerstations in de omgeving